This is the latest recevied weather packets stored in our database for station/object N4BBA. If no packets are shown the sender has not sent any weather packets the latest 1 day(s).
| Time | Temp. | Humidity | Pressure | Rain* | Wind** | Luminosity | Snow |
|---|---|---|---|---|---|---|---|
| 1778060408 | 16.11° C | 88% | 1014.3 hPa | 0 mm | 0.45 m/s, 133° | 0 W/m² | - |
| 1778060107 | 16.11° C | 88% | 1014.3 hPa | 0 mm | 0.45 m/s, 145° | 0 W/m² | - |
| 1778059804 | 16.11° C | 88% | 1014.2 hPa | 0 mm | 0.89 m/s, 206° | 0 W/m² | - |
| 1778059501 | 16.11° C | 88% | 1014.3 hPa | 0 mm | 0.89 m/s, 176° | 0 W/m² | - |
| 1778059197 | 16.11° C | 88% | 1014.1 hPa | 0 mm | 0.45 m/s, 143° | 0 W/m² | - |
| 1778058896 | 16.11° C | 88% | 1014.4 hPa | 0 mm | 0 m/s | 0 W/m² | - |
| 1778058593 | 16.11° C | 87% | 1014.1 hPa | 0 mm | 0.45 m/s, 184° | 0 W/m² | - |
| 1778058291 | 16.11° C | 87% | 1014 hPa | 0 mm | 0.89 m/s, 146° | 0 W/m² | - |
| 1778057987 | 16.11° C | 87% | 1014 hPa | 0 mm | 0.89 m/s, 141° | 0 W/m² | - |
| 1778057684 | 16.11° C | 87% | 1014 hPa | 0 mm | 0.89 m/s, 168° | 0 W/m² | - |
| 1778057380 | 16.11° C | 87% | 1014.3 hPa | 0 mm | 0.45 m/s, 145° | 0 W/m² | - |
| 1778057077 | 16.11° C | 87% | 1014.4 hPa | 0 mm | 0.89 m/s, 201° | 0 W/m² | - |
| 1778056773 | 16.11° C | 87% | 1014.2 hPa | 0 mm | 0.89 m/s, 186° | 0 W/m² | - |
| 1778056471 | 16.11° C | 87% | 1014.2 hPa | 0 mm | 0.89 m/s, 146° | 0 W/m² | - |
| 1778056168 | 15.56° C | 87% | 1014.1 hPa | 0 mm | 0.89 m/s, 150° | 0 W/m² | - |
| 1778055865 | 15.56° C | 87% | 1014 hPa | 0 mm | 0.89 m/s, 152° | 0 W/m² | - |
| 1778055560 | 15.56° C | 87% | 1014.2 hPa | 0 mm | 0.45 m/s, 135° | 0 W/m² | - |
| 1778055259 | 16.11° C | 87% | 1014 hPa | 0 mm | 0.89 m/s, 144° | 0 W/m² | - |
| 1778054956 | 16.11° C | 87% | 1014 hPa | 0 mm | 0.89 m/s, 173° | 0 W/m² | - |
| 1778054652 | 15.56° C | 87% | 1014 hPa | 0 mm | 1.34 m/s, 143° | 0 W/m² | - |
| 1778054350 | 15.56° C | 87% | 1014.1 hPa | 0 mm | 0 m/s | 0 W/m² | - |
| 1778054048 | 15.56° C | 86% | 1014.1 hPa | 0 mm | 0 m/s | 0 W/m² | - |
| 1778053745 | 16.11° C | 86% | 1014.3 hPa | 0 mm | 0.89 m/s, 134° | 0 W/m² | - |
| 1778053442 | 16.11° C | 86% | 1014.4 hPa | 0 mm | 0.45 m/s, 143° | 0 W/m² | - |
| 1778053139 | 15.56° C | 86% | 1014.2 hPa | 0 mm | 0.45 m/s, 138° | 0 W/m² | - |
* Rain latest hour (hover to see other rain measurements)
** Current wind speed in m/s (hover to see current wind gust speed)